Other Public Products
Issued by NWS Charleston, SC

Current Version | Previous Version | Text Only | Print | Product List | Glossary Off
Versions: 1 2 3 4 5 6 7 8 9 10 11 12 13 14 15 16 17 18 19 20 21 22 23 24 25 26 27 28 29 30 31 32 33 34 35 36 37 38 39 40 41 42 43 44 45 46 47 48 49 50

000
FPUS82 KCHS 271527
OPUCHS

TEST...KCHS/KSAV Gateway Observations...TEST
National Weather Service Charleston SC
1100 AM EDT SAT MAY 27 2017

NOTE: "fair" indicates few or no clouds below 12,000 feet with no
significant weather and/or obstructions to visibility.

SCZ050-WAZ558-NCZ071-TXZ119-213-PAZ071-DCZ001-FLZ074-172-MI076-
NYZ176-178-MAZ016-IL014-TNZ027-NJZ106-GAZ044-MD014-271600-

...Gateway Observations for Charleston International...

CITY           SKY/WX    TMP DP  RH WIND       PRES   REMARKS
Chas Airport   SUNNY     83  63  50 VRB7      30.01F
Seattle        MOSUNNY   64  48  56 S3        30.09R
Charlotte      PTSUNNY   82  64  54 W12       29.98S
Dallas DFW     PTSUNNY   85  75  72 S22G30    29.82S HX  93
Dallas Love    CLOUDY    84  74  71 S18G26    29.84S HX  91
Philladelphia  PTSUNNY   70  53  54 SW10      29.90S
Wash National  CLOUDY    71  56  58 CALM      29.92F
Baltimore      PTSUNNY   70  54  56 CALM      29.91F
Miami          MOSUNNY   89  74  60 S3        30.07F HX  98
Detroit        MOSUNNY   70  55  59 E6        29.91R
Newark         PTSUNNY   70  54  56 NW7       29.87S
Laguardia      PTSUNNY   71  53  52 NW5       29.86F
J F K          PTSUNNY   72  55  55 VRB3      29.88S
Boston Logan   CLOUDY    59  52  77 SE10      29.87R
Ft. Lauderdale MOSUNNY   88  77  69 CALM      30.06F HX 100
Chicago O`Hare MOSUNNY   65  53  65 E5        29.92S
Chicago Midway PTSUNNY   67  55  65 E10       29.93R
Houston Bush   PTSUNNY   85  74  69 S10G20    29.95R HX  92
Houston Hobby  PTSUNNY   83  75  77 S15G23    29.94S HX  90
Nashville      CLOUDY    74  66  76 S6        29.97S
Atlanta        CLOUDY    78  63  59 W10       30.07R

$$

GAZ044-118-TXZ119-213-NCZ071-DCZ001-MDZ014-506-PAZ021-071-NJZ106-
NYZ176-178-MAZ106-OHZ011-021-055-MIZ076-KYZ091-ILZ014-INZ047-
MNZ060-ONZ431-271600-

...Gateway Observations for Savannah International...

CITY           SKY/WX    TMP DP  RH WIND       PRES   REMARKS
Savannah Arpt  MOSUNNY   86  61  42 W9        30.04F
Atlanta        CLOUDY    78  63  59 W10       30.07R
Charlotte      PTSUNNY   82  64  54 W12       29.98S
Dallas DFW     PTSUNNY   85  75  72 S22G30    29.82S HX  93
Houston Bush   PTSUNNY   85  74  69 S10G20    29.95R HX  92
Wash National  CLOUDY    71  56  58 CALM      29.92F
Wash Dulles    CLOUDY    68  57  68 CALM      29.92F
Baltimore      PTSUNNY   70  54  56 CALM      29.91F
Philadelphia   PTSUNNY   70  53  54 SW10      29.90S
Newark         PTSUNNY   70  54  56 NW7       29.87S
Laguardia      PTSUNNY   71  53  52 NW5       29.86F
J F K          PTSUNNY   72  55  55 VRB3      29.88S
Boston         CLOUDY    59  52  77 SE10      29.87R
Pittsburg      CLOUDY    61  59  93 NE6       29.90R
Akron          CLOUDY    64  58  80 VRB5      29.90R
Cleveland      MOSUNNY   70  58  65 E7        29.91S
Cincinnati     CLOUDY    74  67  78 SW6       29.88S
Columbus       CLOUDY    71  66  84 CALM      29.86S
Detroit        MOSUNNY   70  55  59 E6        29.91R
Chicago O`Hare MOSUNNY   65  53  65 E5        29.92S
Minneapolis    PTSUNNY   69  46  43 NW7       29.89S
Indianapolis   CLOUDY    70  62  76 VRB3      29.88R
Toronto Canada PTSUNNY   64  57  77 CALM      29.90S

$$




USA.gov is the U.S. government's official web portal to all federal, state and local government web resources and services.